Location: San Antonio
(29.4240°N, 98.4930°W)
Time: 18:10:35
(UTC-05:00)

ZACube-1 - Pass Details

Date: 09 August 2024
Orbit: 561 x 628 km, 97.7° (Epoch: 15 September)

Event Time Altitude Azimuth Distance (km) Brightness Sun altitude
Rises 03:20:20 0° 35° (NE) 2,915 ? -38.8°
Reaches altitude 10° 03:23:21 10° 58° (ENE) 2,010 ? -38.4°
Enters shadow 03:23:42 11° 62° (ENE) 1,930 ? -38.4°
